FW7576 Weather Reports


time (UTC)temp
F
wind
direction
speed
knots
gust
knots
rain 1hr
in
rain 24hr
in
rain mn
in
humidity
%
barometer
mb
20260901211545 79 0 1.7 7.8 0.00 0.02 0.02 80 1014.0
20260901210041 80 259 2.6 8.7 0.02 0.02 0.02 82 1014.1
20260901204545 80 264 2.6 7.8 0.02 0.02 0.02 84 1013.9
20260901203055 81 264 0.9 4.3 0.02 0.02 0.02 84 1014.1
20260901201540 82 221 0.9 7.8 0.02 0.02 0.02 80 1014.3
20260901200050 84 267 4.3 10.4 0.00 0.00 0.00 76 1014.5
20260901194545 85 256 2.6 6.1 0.00 0.00 0.00 74 1013.9
20260901193057 86 224 2.6 9.6 0.00 0.00 0.00 72 1014.5
20260901191542 86 261 4.3 9.6 0.00 0.00 0.00 69 1014.6
20260901190041 86 258 6.1 10.4 0.00 0.00 0.00 69 1014.3
20260901184545 87 238 5.2 9.6 0.00 0.00 0.00 71 1014.3
20260901183042 87 239 4.3 9.6 0.00 0.00 0.00 71 1014.4
20260901181543 87 222 2.6 7.8 0.00 0.00 0.00 73 1014.2
20260901180044 86 240 3.5 7.8 0.00 0.00 0.00 73 1014.3
20260901174547 86 280 2.6 7.8 0.00 0.00 0.00 75 1014.3
20260901173046 85 205 3.5 8.7 0.00 0.00 0.00 78 1014.6
20260901171546 86 252 1.7 6.1 0.00 0.00 0.00 78 1014.7
20260901170047 85 242 0.9 7.0 0.00 0.00 0.00 79 1014.7
20260901164547 85 201 0.9 4.3 0.00 0.00 0.00 80 1014.8
20260901163043 84 248 0.9 3.5 0.00 0.00 0.00 80 1014.6
20260901161544 84 162 0.9 4.3 0.00 0.00 0.00 80 1014.9
20260901160046 84 226 0.9 3.5 0.00 0.00 0.00 79 1015.2
20260901154548 84 210 0.0 2.6 0.00 0.00 0.00 80 1015.0
20260901153055 84 254 0.0 1.7 0.00 0.00 0.00 79 1015.0
20260901151544 83 257 0.0 3.5 0.00 0.00 0.00 79 1014.8
20260901150050 82 247 1.7 3.5 0.00 0.00 0.00 81 1014.9
20260901144548 82 225 0.0 2.6 0.00 0.00 0.00 82 1015.0
20260901143053 81 266 0.9 3.5 0.00 0.00 0.00 83 1015.0
20260901141553 80 320 2.6 5.2 0.00 0.00 0.00 84 1015.1
20260901140045 79 247 2.6 4.3 0.00 0.00 0.00 84 1015.1
20260901134544 77 202 0.0 1.7 0.00 0.00 0.00 86 1015.0
20260901133043 77 213 0.0 4.3 0.00 0.00 0.00 86 1015.0
20260901131550 76 0 0.0 3.5 0.00 0.00 0.00 86 1014.9
20260901130045 75 0 0.0 0.9 0.00 0.00 0.00 87 1015.1
20260901124550 74 0 0.0 0.9 0.00 0.00 0.00 87 1015.0
20260901123050 74 0 0.0 0.9 0.00 0.00 0.00 86 1014.9
20260901121549 73 0 0.0 0.0 0.00 0.00 0.00 86 1014.9
20260901120047 73 0 0.0 0.9 0.00 0.00 0.00 86 1014.7
20260901114544 72 0 0.0 0.0 0.00 0.01 0.00 87 1014.4
20260901113043 72 0 0.0 0.0 0.00 0.01 0.00 87 1014.1
20260901111539 72 0 0.0 0.0 0.00 0.01 0.00 87 1013.9
20260901110045 73 0 0.0 0.0 0.00 0.01 0.00 87 1013.8
20260901104544 73 0 0.0 0.0 0.00 0.15 0.00 87 1013.8
20260901103048 74 0 0.0 1.7 0.00 0.15 0.00 87 1013.7
20260901101541 74 0 0.0 0.0 0.00 0.15 0.00 87 1013.7
20260901100043 74 0 0.0 0.0 0.00 0.15 0.00 87 1013.8
20260901094549 75 0 0.0 0.0 0.00 0.16 0.00 86 1013.6
20260901093046 76 0 0.0 3.5 0.00 0.16 0.00 86 1013.7
20260901091543 76 233 0.9 3.5 0.00 0.16 0.00 86 1013.6
20260901090055 76 221 0.9 3.5 0.00 0.16 0.00 86 1013.6
20260901084547 75 224 2.6 4.3 0.00 0.16 0.00 86 1013.6
20260901083046 75 238 1.7 2.6 0.00 0.16 0.00 87 1013.5
20260901081546 75 251 0.9 3.5 0.00 0.16 0.00 87 1013.4
20260901080041 75 253 0.9 2.6 0.00 0.16 0.00 87 1013.5
20260901074547 75 255 0.9 1.7 0.00 0.16 0.00 87 1013.6
20260901073046 75 0 0.0 2.6 0.00 0.16 0.00 87 1013.5
20260901071553 75 0 0.0 3.5 0.00 0.16 0.00 87 1013.5
20260901070044 75 252 0.9 3.5 0.00 0.16 0.00 86 1013.7
20260901064543 76 267 1.7 4.3 0.00 0.16 0.00 86 1013.7
20260901063041 76 228 1.7 4.3 0.00 0.16 0.00 86 1013.7
20260901061546 76 228 0.9 3.5 0.00 0.16 0.00 86 1013.6
20260901060047 76 248 0.9 2.6 0.00 0.16 0.00 86 1013.5
20260901054543 76 237 2.6 5.2 0.00 0.16 0.00 85 1013.6
20260901053044 76 258 1.7 4.3 0.00 0.16 0.00 85 1013.5
20260901051546 76 257 1.7 5.2 0.00 0.16 0.00 86 1013.4
20260901050044 76 253 1.7 3.5 0.00 0.16 0.00 86 1013.5
20260901044545 76 256 0.0 3.5 0.00 0.16 0.16 86 1013.7
20260901043043 77 250 2.6 5.2 0.00 0.16 0.16 86 1013.8
20260901041607 77 254 1.7 5.2 0.00 0.16 0.16 86 1013.6
20260901040045 77 250 2.6 4.3 0.00 0.16 0.16 85 1013.7
20260901034540 77 252 2.6 5.2 0.00 0.16 0.16 85 1013.7
20260901033040 77 241 1.7 4.3 0.00 0.16 0.16 85 1013.9
20260901031544 77 257 1.7 4.3 0.00 0.16 0.16 85 1013.8
20260901030051 78 232 0.0 1.7 0.00 0.16 0.16 85 1013.8
20260901024543 78 252 0.0 4.3 0.00 0.16 0.16 84 1013.9
20260901023050 79 231 2.6 4.3 0.00 0.16 0.16 83 1013.9
20260901021549 79 264 2.6 4.3 0.00 0.16 0.16 83 1014.0
20260901020042 79 244 1.7 5.2 0.00 0.16 0.16 82 1013.7
20260901014549 80 252 0.9 2.6 0.00 0.16 0.16 81 1013.5
20260901013045 80 245 1.7 5.2 0.00 0.16 0.16 80 1013.6
20260901011542 81 278 1.7 6.1 0.00 0.16 0.16 79 1013.4
20260901010046 81 249 0.9 6.1 0.00 0.16 0.16 78 1013.0
20260901004551 81 205 1.7 7.8 0.00 0.16 0.16 77 1013.0
20260901003042 82 250 1.7 7.8 0.00 0.16 0.16 76 1013.0
20260901001545 82 258 1.7 5.2 0.00 0.16 0.16 76 1012.9
20260901000048 82 243 0.9 7.0 0.00 0.16 0.16 75 1012.9
20260831234545 82 223 1.7 10.4 0.00 0.16 0.16 74 1012.8
20260831233049 82 224 1.7 7.0 0.00 0.16 0.16 74 1012.7
20260831231547 83 224 1.7 9.6 0.00 0.16 0.16 74 1012.6
20260831230044 83 234 4.3 10.4 0.00 0.16 0.16 73 1012.7
20260831224551 83 265 3.5 11.3 0.00 0.16 0.16 74 1012.5
20260831223044 83 245 3.5 8.7 0.00 0.16 0.16 73 1012.3
20260831221540 84 220 1.7 9.6 0.00 0.16 0.16 72 1012.4
20260831220050 84 231 3.5 9.6 0.00 0.16 0.16 71 1012.4
20260831214546 84 268 3.5 12.2 0.00 0.16 0.16 70 1012.3
20260831213041 84 255 6.1 11.3 0.00 0.16 0.16 70 1012.7